RH
23 22 23 22 21 28 36 35 40 29 32 35 44 48 52 55 60 65 71 78 84 89 88 88 97 90 70 44 24 16 13 10 8 8 8 8 9 10 11 14 22 38 52 71
28 26 25 23 23 22 24 26 31 33 25 29 41 46 48 50 59 68 76 83 88 97 97 96 86 79 58 31 17 14 12 10 9 9 9 10 12 12 14 25 37 56 69 91
23 19 22 21 12 12 13 16 19 25 21 30 33 44 51 55 60 70 77 83 93 97 79 74 77 70 41 20 16 14 11 10 11 11 12 13 13 15 22 42 59 74 91 99
22 24 43 13 13 13 13 15 15 21 25 30 39 49 53 54 62 75 85 90 82 73 76 80 77 46 22 19 17 14 13 12 13 14 13 14 16 27 41 54 66 82 89 93
22 25 21 16 14 13 14 17 18 28 35 36 37 43 32 40 62 84 89 84 86 88 86 86 54 23 21 22 20 17 15 14 15 14 13 17 26 39 56 65 73 82 100 100
27 29 40 17 15 14 16 25 19 24 37 33 37 38 35 63 70 83 94 90 94 91 91 72 25 23 30 25 21 18 15 14 14 15 18 23 37 53 68 70 74 76 61 30
33 33 27 21 20 20 34 20 30 30 31 40 43 47 54 66 90 99 90 98 98 96 89 32 25 32 27 24 20 14 13 14 16 20 22 34 51 72 78 73 59 26 22 28
32 41 36 21 24 30 27 33 40 45 49 56 58 61 66 87 100 100 99 96 97 100 58 26 28 30 26 21 15 13 14 16 20 23 31 45 65 87 83 73 41 31 32 32
29 24 26 32 38 42 45 51 50 61 69 75 70 66 79 89 88 98 98 98 98 87 34 33 42 26 21 16 13 13 16 20 23 24 42 52 77 92 94 91 64 39 30 27
34 34 36 41 47 49 58 57 58 75 82 81 74 80 87 93 100 98 95 97 94 40 30 36 25 21 17 13 12 15 20 24 25 30 50 64 85 100 99 97 60 35 27 26
39 36 42 44 44 46 49 49 52 62 76 72 73 87 97 95 98 96 98 95 42 37 31 26 23 17 13 11 13 20 26 27 28 44 52 70 82 100 99 92 46 28 26 28
49 50 56 52 51 50 51 52 59 63 68 72 87 92 99 99 97 98 95 61 60 42 29 25 17 12 12 16 24 29 30 31 34 54 55 68 93 100 97 51 26 27 26 32
63 64 64 62 60 58 53 53 56 62 74 100 99 99 99 97 97 95 94 82 54 32 25 15 11 13 20 24 27 36 37 38 39 65 70 84 96 90 44 24 32 31 28 33
64 67 67 72 73 70 69 69 74 84 97 98 94 96 98 97 94 92 90 51 32 22 13 10 14 24 27 24 28 37 44 43 44 81 88 86 84 42 33 41 37 32 32 33
65 72 77 82 85 79 76 86 91 99 96 99 100 97 97 95 94 90 46 32 19 12 10 15 24 31 27 25 32 41 46 49 54 81 100 92 74 42 50 45 32 30 31 34
81 88 88 85 80 74 80 98 100 98 99 98 97 96 95 94 87 42 28 18 12 11 16 21 33 33 31 31 34 44 51 56 60 78 95 100 84 53 54 39 27 29 31 34
82 80 78 75 74 74 80 80 100 99 97 96 95 94 92 66 38 26 16 13 12 16 20 28 36 37 37 38 39 45 50 56 64 70 96 100 94 63 60 40 22 26 33 35
84 85 89 93 96 97 99 98 99 98 96 95 94 82 52 36 25 18 14 13 16 20 30 36 42 44 45 49 47 50 53 56 61 68 92 98 98 77 69 59 31 23 30 33
96 100 100 100 99 98 97 97 96 95 94 93 79 51 36 25 19 15 14 17 23 30 37 44 48 48 48 58 58 55 53 53 53 58 80 90 96 86 77 78 71 40 26 32
99 99 97 97 96 96 95 94 93 93 93 85 56 40 27 21 17 16 18 23 35 42 46 51 55 55 58 64 64 65 61 55 49 50 68 86 93 93 93 91 94 93 70 33
95 94 93 92 91 87 86 83 88 89 74 52 36 27 21 18 20 25 31 39 49 61 62 59 58 58 61 67 66 70 71 64 50 49 60 80 95 99 100 100 99 99 98 98
84 86 84 75 57 62 80 91 81 53 38 31 25 22 22 28 40 46 52 62 67 75 74 64 57 52 52 63 66 70 74 64 52 52 60 80 97 100 100 100 100 100 99 99
58 40 50 66 68 63 53 41 36 32 28 26 28 36 46 47 52 64 65 71 79 85 82 75 68 58 50 51 64 76 82 64 53 47 43 46 58 82 99 100 100 100 100 98
60 64 65 56 43 39 37 34 32 33 35 38 44 53 54 49 33 49 59 69 82 86 70 53 51 61 63 61 76 90 90 70 54 44 41 38 33 30 29 35 50 78 94 99
66 56 48 44 41 39 38 39 43 49 42 36 37 38 37 33 29 23 22 23 27 25 63 59 78 85 83 86 93 100 97 86 71 57 48 36 29 26 25 25 27 32 53 65
52 48 47 45 44 46 49 46 41 36 32 31 31 28 24 24 25 27 25 21 28 32 59 80 100 100 100 100 100 100 100 99 95 79 50 36 35 36 35 32 29 26 26 37
52 52 56 64 67 56 45 36 33 34 32 28 25 24 24 24 25 26 30 34 36 40 100 100 100 100 100 100 100 100 100 99 99 84 49 43 44 43 37 30 27 26 25 28
Wind_Speed
11 9 9 10 11 13 16 16 16 19 20 16 18 18 21 24 27 29 28 26 26 27 32 39 40 34 34 35 37 40 41 44 46 47 48 49 48 45 43 39 34 30 26 21
15 13 13 13 14 17 20 21 23 24 25 20 18 19 22 24 26 28 28 27 27 33 38 39 34 36 34 36 38 40 43 45 46 48 49 48 46 44 41 36 32 27 25 21
8 14 15 16 19 20 23 24 22 25 20 17 17 18 19 20 22 25 26 27 31 37 37 34 35 33 34 37 39 41 44 46 49 49 48 46 44 42 37 33 28 26 21 24
6 8 1 17 17 16 16 16 21 22 20 19 19 19 18 19 20 24 26 29 33 34 34 35 32 33 35 38 41 44 46 48 49 48 46 44 41 38 34 30 27 22 22 25
6 12 16 14 16 17 18 20 23 23 20 19 20 18 20 20 19 23 27 31 35 34 33 30 31 34 36 39 43 45 47 48 47 45 44 42 37 35 32 29 26 24 25 27
10 5 5 10 12 12 18 28 25 22 19 17 18 27 24 19 23 25 29 33 35 33 29 29 31 34 37 41 44 46 48 46 43 43 44 40 36 32 30 27 25 24 24 24
21 15 13 18 19 18 13 21 12 12 16 24 29 27 26 25 25 27 30 32 31 29 27 29 32 35 40 43 45 47 46 42 41 43 43 39 35 29 27 25 23 24 26 27
12 11 12 16 19 18 17 16 22 23 25 30 27 28 32 27 26 32 31 31 27 25 27 30 34 39 42 44 46 46 43 39 40 42 39 35 31 26 25 24 24 25 27 29
14 13 17 22 23 22 21 27 28 30 30 28 28 33 28 28 35 35 30 26 24 24 27 32 37 41 43 45 46 43 40 38 40 40 34 32 26 24 26 26 26 25 28 29
25 25 23 24 26 28 29 31 31 30 30 30 35 29 28 31 32 34 24 24 21 25 30 35 40 41 44 45 44 41 39 37 39 36 33 29 24 26 30 27 25 26 28 28
28 27 27 25 27 28 30 31 30 31 32 36 30 29 30 30 36 29 22 21 21 29 35 38 39 41 43 43 42 39 37 36 37 34 30 26 22 24 30 26 25 26 27 25
25 20 23 26 26 28 30 30 30 32 31 29 28 29 34 33 30 21 19 19 27 34 38 37 39 40 41 41 39 36 35 35 34 31 28 25 22 26 27 25 24 26 25 22
24 25 28 28 27 26 28 28 29 29 27 25 29 29 36 29 18 15 17 25 33 36 35 37 38 38 39 36 36 35 34 32 31 28 25 23 22 23 23 23 24 25 23 20
27 29 30 28 31 31 30 29 27 25 26 28 34 40 27 19 14 19 25 31 34 34 35 36 37 36 34 36 35 33 31 30 28 25 23 21 20 20 22 23 23 22 20 17
31 32 34 35 34 33 31 29 28 30 30 37 32 22 20 16 21 26 29 32 32 33 33 34 34 33 34 35 34 31 29 28 27 24 23 21 19 20 21 23 22 20 17 15
35 34 34 33 32 32 31 28 29 26 35 30 19 18 17 24 27 28 30 31 30 31 33 33 32 32 33 32 31 30 28 27 27 26 23 21 20 21 22 22 21 19 16 14
32 32 31 31 30 30 30 27 32 26 20 15 14 20 25 27 29 28 29 29 30 32 33 34 32 32 34 32 30 28 27 28 28 27 24 22 20 21 22 21 20 18 16 14
28 28 27 26 27 25 27 19 18 21 14 14 20 24 25 26 27 28 29 31 32 33 33 33 33 34 33 32 30 29 29 29 28 27 25 22 21 21 21 21 20 19 17 16
27 24 22 19 14 13 13 12 11 13 17 22 25 26 26 26 29 31 33 33 32 33 32 34 34 33 33 32 30 30 30 29 28 27 24 22 21 22 22 21 21 20 20 19
19 15 13 7 8 10 12 16 21 24 26 29 30 28 28 30 32 33 34 34 32 34 34 33 33 34 34 33 32 31 30 29 28 26 25 23 23 23 24 24 24 23 21 21
9 10 11 12 15 19 21 22 25 28 32 32 30 30 31 31 32 33 34 35 30 34 34 33 34 34 34 34 33 32 31 30 28 27 26 25 25 26 27 28 28 27 26 24
11 14 14 15 18 20 24 27 31 31 29 29 30 30 32 31 32 34 34 35 35 36 36 34 35 36 35 34 34 33 32 30 28 26 25 25 26 27 29 30 31 30 29 29
16 16 17 20 24 26 28 28 27 28 29 29 30 31 32 33 36 37 38 39 39 39 40 40 40 39 38 37 35 34 31 29 27 26 25 25 26 28 31 33 34 35 35 35
18 21 23 24 23 24 25 25 27 28 30 31 33 34 37 40 42 41 42 43 43 45 45 44 44 40 38 36 33 32 30 28 26 26 27 27 28 29 30 31 33 35 35 34
21 21 22 23 25 27 28 29 30 31 33 36 38 40 42 44 46 47 46 45 45 43 38 37 37 36 35 34 33 31 29 28 27 28 28 27 27 28 29 30 31 33 34 36
22 23 25 26 27 29 31 33 36 39 40 42 44 45 45 45 44 43 43 42 39 37 34 33 33 34 33 32 30 31 29 28 28 28 28 28 29 30 32 33 34 34 33 34
23 24 25 27 29 33 37 39 40 42 44 46 48 48 48 47 45 42 41 37 35 32 28 33 33 33 32 31 30 29 29 29 28 27 28 29 30 32 34 35 35 35 35 34
Wind_Direction
224 231 215 233 247 252 254 270 256 279 281 284 279 274 267 270 265 269 272 265 267 275 279 286 300 320 315 318 321 322 323 323 324 323 324 326 329 330 328 322 314 313 307 297
232 236 238 250 259 264 265 265 263 269 281 289 286 281 276 279 274 271 267 269 277 283 293 312 313 311 317 319 320 322 323 323 323 324 327 327 329 329 326 321 318 312 308 295
238 248 256 267 267 268 272 270 270 268 296 282 286 289 293 291 282 271 271 280 292 301 310 305 307 311 314 317 321 323 324 324 325 326 326 327 329 329 325 320 314 310 301 298
245 244 308 261 269 272 265 261 278 279 279 283 289 285 282 286 286 277 281 289 297 302 303 303 306 312 318 322 325 325 326 325 323 323 325 326 326 327 323 319 313 308 297 297
229 234 263 260 271 280 278 277 278 278 274 279 285 282 293 300 290 282 286 296 300 301 300 305 312 317 320 324 324 324 322 322 321 320 322 323 323 325 322 319 314 309 305 305
233 239 221 275 275 271 277 269 284 278 272 279 282 293 304 287 287 289 291 300 298 301 302 309 313 316 321 321 321 321 320 319 319 318 321 322 319 321 322 319 315 312 311 312
250 252 266 273 279 278 254 291 297 287 272 294 293 301 300 296 288 285 297 298 300 303 304 311 313 316 319 318 318 318 316 317 317 319 320 318 317 318 320 316 312 312 315 317
246 247 266 274 272 270 294 287 302 296 290 299 297 300 299 291 286 288 291 300 298 293 305 311 314 315 315 315 315 316 316 317 318 319 319 317 314 315 318 314 311 313 315 316
254 264 280 298 298 296 286 294 301 298 297 292 289 299 293 288 296 298 297 293 285 300 307 311 310 311 312 314 316 317 317 317 318 320 319 316 310 315 319 312 309 311 315 316
278 281 288 288 292 293 294 294 292 288 284 282 293 289 282 287 289 291 287 282 298 307 310 308 308 311 313 315 318 316 315 317 319 319 318 313 301 304 315 312 308 311 315 316
286 292 294 290 287 285 285 287 287 285 279 285 283 283 284 286 289 281 274 289 313 311 308 308 312 314 315 317 317 316 315 317 318 318 317 308 301 300 309 310 308 311 316 317
294 298 289 292 292 290 290 290 286 284 285 284 284 286 271 274 279 260 288 319 313 309 308 312 313 316 317 319 318 317 316 316 318 317 316 310 304 298 304 307 310 314 319 319
298 295 292 295 295 295 293 291 289 287 287 283 276 279 277 272 258 301 319 314 312 309 311 313 318 320 321 322 322 320 318 318 320 316 314 308 298 301 306 311 315 316 317 317
297 300 299 298 295 298 298 294 293 289 285 272 280 276 264 254 311 327 321 315 313 313 313 318 322 323 322 322 322 322 321 320 322 317 313 310 304 304 312 318 317 314 313 315
294 296 298 297 297 299 298 297 294 284 288 267 272 265 251 308 331 326 318 316 314 313 317 322 325 322 323 323 323 323 320 320 324 321 311 309 303 304 314 320 316 311 311 310
291 292 292 292 292 293 293 295 291 290 279 262 249 256 303 330 329 319 317 311 311 315 320 324 324 321 323 325 326 323 320 323 324 321 315 305 301 308 316 319 314 309 308 304
287 288 288 289 292 292 297 300 280 272 244 261 286 321 334 325 316 312 309 312 316 318 321 322 322 321 324 323 323 322 321 321 319 318 316 303 299 304 311 317 315 307 305 299
286 286 288 290 295 299 286 269 262 254 271 323 335 329 318 316 314 312 312 316 317 317 318 319 319 319 320 316 315 316 317 318 315 313 310 302 298 301 308 316 319 311 303 298
284 284 286 288 279 265 249 263 284 320 333 336 326 320 318 315 313 315 313 313 315 314 315 315 316 318 317 315 312 312 312 313 312 309 306 300 294 298 303 310 316 315 304 297
261 257 236 258 298 313 322 331 338 336 329 323 319 316 315 315 311 309 311 313 315 310 313 313 313 314 315 317 314 311 310 311 309 307 301 297 292 291 294 297 303 305 306 300
328 346 342 343 340 336 334 327 317 314 316 315 314 311 307 306 308 309 309 309 312 307 310 309 308 310 310 310 312 313 310 309 306 301 298 294 291 291 291 292 294 296 297 298
340 335 330 327 322 314 312 312 312 313 312 310 309 308 307 308 308 308 310 310 309 307 306 305 306 307 309 307 308 311 309 307 304 299 295 292 291 290 289 290 291 292 292 291
325 317 312 310 309 307 307 307 308 307 307 308 308 309 309 310 310 309 310 309 308 305 303 303 303 304 304 304 304 307 306 304 301 299 297 296 294 291 289 288 288 289 288 289
316 314 310 306 304 304 304 305 307 308 309 310 311 311 309 308 309 306 303 302 301 301 301 302 302 302 299 300 301 302 301 299 298 297 299 301 302 301 300 297 292 287 288 289
304 302 302 304 306 307 307 306 306 307 307 308 308 307 306 306 306 308 306 303 303 304 302 303 303 302 301 300 299 295 294 294 294 297 299 301 304 305 306 306 303 298 293 288
303 304 305 303 303 304 306 308 309 309 309 309 309 308 307 306 306 305 305 305 303 306 302 302 303 302 302 301 298 294 289 289 290 295 299 301 303 306 308 309 308 304 301 292
299 299 300 301 302 304 306 307 308 309 308 308 307 308 308 307 307 307 306 304 303 302 299 298 302 302 303 300 297 294 292 289 291 294 298 301 303 305 308 310 310 307 302 299